SCP
0 0 0 0 0 0 0 0 0 0 0 0 0 0 0 -0 0 0 1 1 2 2 1 1 1 1 0 0 0 0 0 0 0 0 0 0 -0 0 0 0 0 0 0 0
0 0 0 0 0 0 0 0 0 0 0 0 0 0 0 -0 0 0 0 1 1 2 1 2 1 1 0 0 0 0 0 0 0 0 0 0 0 0 0 0 0 0 0 0
-0 -0 0 0 0 0 0 0 0 0 0 0 0 -0 0 0 0 0 0 1 2 2 1 1 1 1 0 0 0 0 0 0 0 0 0 0 0 0 0 0 0 0 0 0
-0 0 0 0 0 0 0 0 0 0 0 0 0 -0 0 0 0 0 0 1 1 1 1 1 2 1 0 0 0 0 0 0 0 0 0 0 0 0 0 0 0 0 0 0
0 0 0 0 0 0 0 0 0 0 0 0 0 0 -0 -0 0 0 0 0 1 1 1 1 1 1 1 0 0 0 0 0 0 0 0 0 0 0 0 0 0 0 0 0
0 -0 0 -0 0 0 0 0 0 0 0 0 0 0 -0 0 0 0 0 0 0 1 1 1 1 1 1 1 0 0 0 0 0 0 0 0 0 0 0 0 0 0 0 0
0 0 0 0 0 0 0 0 0 0 0 0 0 0 0 0 0 0 0 0 0 0 1 1 1 1 1 1 0 0 0 0 0 0 0 0 0 0 0 0 0 0 0 0
-0 0 0 -0 0 -0 0 0 0 0 0 0 0 0 0 0 0 0 0 0 0 0 1 2 1 1 1 1 1 0 0 0 0 0 0 0 0 0 0 0 0 0 0 0
0 0 0 -0 0 -0 0 0 0 0 0 0 0 0 0 0 0 0 0 0 0 0 0 1 2 1 1 1 0 1 0 0 0 0 0 0 0 0 0 0 0 0 0 0
0 0 -0 0 0 -0 -0 0 0 0 0 0 0 0 0 0 0 0 0 0 0 0 0 0 2 1 1 1 1 1 1 0 0 0 0 0 0 0 0 0 0 0 0 0
0 0 0 0 0 0 0 0 0 0 0 -0 0 0 0 0 0 0 0 0 0 0 0 0 1 1 1 1 1 1 1 0 0 0 0 0 0 0 0 0 0 0 0 0
0 0 0 -0 0 -0 0 -0 0 0 0 0 0 0 0 0 0 0 0 0 0 0 0 0 0 0 0 0 0 0 1 0 0 0 0 0 0 0 0 0 0 0 0 0
0 0 -0 -0 -0 -0 0 -0 -0 0 0 0 0 0 0 0 0 0 0 0 0 0 0 0 0 0 0 0 0 0 0 0 0 0 0 0 0 0 0 0 0 0 0 0
0 0 0 -0 -0 0 0 -0 -0 0 0 0 0 0 0 0 0 0 0 0 0 0 0 0 0 0 0 0 0 0 0 0 0 0 0 0 0 0 0 0 0 0 0 0
0 0 0 -0 -0 -0 -0 0 -0 0 0 0 0 0 0 0 0 0 0 0 0 0 0 0 0 0 0 0 0 0 0 0 0 0 0 0 0 0 0 0 0 0 0 0
0 0 0 -0 -0 -0 0 0 0 -0 0 0 0 0 0 0 0 0 0 0 0 0 0 0 0 0 0 0 0 0 0 0 0 0 0 0 0 0 0 0 0 0 0 0
0 0 0 -0 -0 0 -0 0 0 0 0 0 0 0 0 0 0 0 0 0 0 0 0 0 0 0 0 0 0 0 0 0 0 0 0 0 0 0 0 0 0 0 0 0
0 0 0 -0 -0 0 0 0 0 0 0 0 0 0 0 0 0 0 0 0 0 0 0 0 0 0 0 0 0 0 0 0 0 0 0 0 0 0 0 0 0 0 0 0
-0 0 0 -0 0 0 0 -0 0 0 -0 0 0 0 0 0 0 0 0 0 0 0 0 0 0 0 0 0 0 0 0 0 0 0 0 0 0 0 0 0 0 0 0 0
0 0 0 0 -0 0 0 -0 -0 -0 0 0 0 0 0 0 0 0 0 0 0 0 0 0 0 0 0 0 0 0 0 0 0 0 0 0 0 0 0 0 0 0 0 0
0 0 0 0 0 0 0 -0 0 0 0 0 -0 0 0 0 0 0 0 0 0 0 0 0 0 0 0 0 0 0 0 0 0 0 0 0 0 0 0 0 0 0 0 0
0 0 0 0 0 0 0 0 0 -0 0 0 0 -0 -0 0 0 0 0 0 0 0 0 0 0 0 0 0 0 0 0 0 0 0 0 0 0 0 0 0 0 0 0 0
0 0 0 0 0 -0 -0 -0 -0 -0 -0 -0 -0 -0 -0 -0 0 0 0 0 0 0 0 0 0 0 0 0 0 0 0 0 0 0 0 0 0 0 0 0 0 0 0 0
0 0 0 0 0 0 0 0 0 0 -0 -0 -0 -0 -0 -0 -0 -0 0 0 0 0 0 0 0 0 0 0 0 0 0 0 0 0 0 0 0 0 0 0 0 0 0 0
0 0 0 -0 0 0 0 0 -0 0 0 0 0 -0 -0 -0 -0 -0 -0 -0 0 0 0 0 0 0 0 -0 0 0 0 0 0 0 0 0 0 0 0 0 0 0 0 0
0 0 0 0 -0 -0 -0 -0 -0 -0 -0 0 -0 0 0 -0 -0 -0 -0 -0 -0 -0 0 0 0 0 0 0 0 -0 0 0 0 0 0 0 0 0 0 0 0 0 0 0
Wind_Speed_500mb
18 9 10 8 14 29 28 36 47 25 7 8 19 41 34 15 33 22 41 51 60 69 82 83 86 96 102 95 93 91 91 89 87 85 84 83 84 79 79 80 79 75 71 69
13 8 13 31 30 31 30 35 48 46 17 22 29 45 30 18 20 39 48 55 62 63 65 76 79 90 102 102 99 95 96 93 92 89 87 86 85 84 80 78 76 74 73 72
8 19 24 34 35 28 31 34 47 42 10 20 11 44 28 18 21 39 56 73 71 79 74 80 88 96 102 108 107 98 99 97 96 93 90 87 84 82 84 86 82 79 76 75
11 13 40 35 28 22 29 28 40 35 19 27 19 36 23 12 19 19 41 55 68 76 79 86 97 104 107 115 108 98 96 102 102 98 98 99 100 102 100 93 84 84 85 82
22 34 30 22 13 33 27 32 36 34 26 21 21 10 28 17 16 22 28 57 75 86 81 90 95 107 106 115 114 106 100 105 107 105 105 102 100 101 98 92 86 90 88 83
35 29 7 6 39 35 41 30 27 27 21 23 36 25 11 14 32 13 12 48 70 81 83 90 103 106 108 111 113 109 105 104 110 109 109 107 103 100 98 98 91 93 93 85
23 18 5 28 48 44 26 17 5 11 13 26 33 27 34 15 14 18 19 34 62 75 75 84 90 98 101 103 111 115 110 109 113 116 114 113 107 102 99 99 95 97 100 94
21 21 15 40 21 20 39 14 9 19 17 17 26 28 26 32 34 14 30 40 40 63 76 90 100 109 113 111 116 120 120 116 114 122 121 116 112 109 101 96 94 94 102 95
12 13 44 24 16 19 21 4 20 11 22 13 19 20 6 27 27 19 15 22 23 28 58 90 102 110 109 112 120 125 125 126 123 120 122 120 117 115 109 104 100 95 95 92
9 25 19 25 14 9 16 33 3 9 10 18 14 14 12 34 35 18 15 17 26 32 22 70 87 96 105 116 124 122 124 129 135 128 123 123 122 116 109 104 100 100 93 91
14 8 24 26 8 24 20 21 16 12 9 8 5 10 22 30 23 24 24 31 30 28 23 22 68 89 102 102 102 118 121 122 127 132 125 120 121 117 112 111 101 93 95 88
7 9 23 47 31 8 16 11 17 9 15 10 8 8 35 35 29 30 32 38 33 29 23 8 20 59 86 95 93 104 110 117 121 126 129 125 122 118 112 104 101 96 95 92
10 6 19 20 4 5 14 28 34 27 14 6 10 7 33 37 36 44 40 46 45 44 48 39 28 17 47 71 81 92 100 106 103 103 100 115 115 108 112 110 103 95 94 93
20 7 12 15 24 25 28 42 36 22 8 18 8 27 39 45 42 41 54 52 48 53 58 70 55 36 16 35 57 72 78 85 93 99 96 100 100 103 98 100 101 95 95 93
5 11 16 25 31 31 28 28 34 22 30 16 17 31 31 31 31 41 55 61 63 62 65 67 68 63 42 26 40 54 64 72 80 79 78 85 89 93 88 87 89 84 85 85
7 9 14 15 24 12 29 20 25 29 29 28 29 20 37 33 49 57 63 65 68 69 64 61 62 57 55 42 28 40 50 58 59 61 70 73 74 82 77 79 76 75 78 72
8 13 10 8 18 26 2 21 24 24 35 27 30 35 46 22 26 48 58 66 68 69 66 69 65 60 54 51 43 29 32 46 53 59 67 65 66 73 72 72 63 55 56 59
25 30 8 10 13 9 12 31 22 21 39 37 33 44 53 49 24 50 75 62 69 70 72 73 70 71 55 49 49 41 33 30 35 37 38 41 34 38 52 53 53 55 52 54
33 18 12 6 6 12 29 36 32 23 24 33 36 42 58 79 27 44 80 67 59 66 60 55 64 59 67 53 51 51 51 42 40 31 29 39 52 49 44 53 53 55 48 43
36 22 10 10 5 5 26 39 74 16 19 39 39 37 40 57 30 24 80 56 53 58 62 53 57 60 62 61 64 54 57 57 60 40 37 24 38 38 37 35 35 35 39 38
28 21 16 16 7 11 26 53 34 20 16 46 35 34 35 16 17 50 69 62 40 42 53 55 46 54 55 58 53 63 57 57 53 55 47 39 36 31 30 26 23 23 28 29
13 12 11 10 8 9 54 26 19 11 34 43 42 39 38 36 44 48 62 62 56 46 41 51 50 48 61 58 52 55 57 51 48 51 52 52 49 47 35 26 21 20 21 19
10 7 9 6 8 25 38 30 42 41 35 40 43 51 44 45 43 52 40 50 50 45 44 36 36 38 33 50 59 49 40 40 44 51 53 51 48 52 52 45 26 25 22 21
15 14 6 17 29 41 42 48 51 48 44 43 45 45 43 43 46 47 47 44 44 41 46 50 35 28 19 28 33 35 38 34 34 40 41 41 46 53 52 43 38 39 37 28
9 14 12 8 19 35 36 43 44 49 47 47 44 44 45 48 48 46 42 39 39 33 32 42 49 39 28 19 15 24 24 28 30 30 30 32 35 37 38 40 40 39 38 36
16 8 8 6 29 13 28 40 47 51 49 50 51 52 49 48 49 48 43 43 37 36 34 28 38 46 37 19 11 8 11 10 9 20 25 22 21 21 25 29 29 27 30 31
Wind_Direction_500mb
321 13 277 279 276 283 284 272 271 255 234 321 255 266 266 220 258 239 225 210 208 203 207 203 204 210 213 213 211 207 204 202 202 200 200 199 197 195 192 191 189 191 192 190
3 269 330 328 312 285 275 273 269 278 248 261 273 274 275 206 221 222 215 211 212 210 204 201 202 204 213 214 213 209 208 204 203 203 202 202 198 197 195 193 194 195 194 193
302 271 316 318 310 310 275 260 265 266 305 269 279 276 265 258 235 226 226 219 212 208 203 200 201 206 213 212 213 210 210 208 204 204 204 203 201 200 199 196 197 197 196 195
306 319 318 313 313 345 299 265 265 269 255 251 194 271 252 239 222 219 211 211 214 213 207 204 201 208 214 215 214 213 211 210 206 203 205 204 202 200 201 200 198 197 197 198
308 306 328 341 3 335 271 297 271 262 250 261 247 248 257 177 234 225 216 206 214 219 205 204 203 211 216 215 215 214 211 211 207 204 206 205 206 206 203 201 200 200 202 204
313 293 24 336 326 297 293 280 250 251 240 247 232 224 232 190 214 220 213 214 214 218 213 208 211 215 214 213 215 214 211 211 210 205 206 205 205 207 205 204 203 203 205 208
333 332 37 357 340 326 333 341 227 210 222 231 224 225 234 234 216 193 202 216 222 219 212 211 204 207 211 207 210 214 211 211 211 209 208 206 207 208 210 209 207 207 205 209
342 327 9 337 330 286 293 231 254 212 210 223 213 217 237 227 267 295 255 257 246 232 216 208 209 208 210 208 209 213 214 213 213 212 211 210 210 211 212 212 209 210 210 213
318 265 316 317 357 341 331 298 309 285 284 204 190 233 239 16 7 345 356 7 337 295 234 214 209 209 206 207 212 213 216 215 215 215 213 213 212 214 216 216 215 215 214 215
276 301 298 342 357 354 336 324 28 202 265 232 208 165 357 353 349 344 5 1 348 333 274 218 210 209 206 209 218 214 216 217 216 216 214 214 215 217 220 218 218 220 220 223
290 244 291 309 36 12 342 359 359 292 294 255 137 91 14 345 357 9 18 14 4 351 326 235 210 213 211 208 206 213 212 214 212 215 217 215 217 218 221 221 221 225 226 225
282 279 302 295 287 216 343 339 357 332 324 301 270 100 10 342 22 22 15 9 13 16 27 351 226 207 211 210 205 211 208 212 215 217 216 215 217 217 220 223 224 228 231 235
297 314 313 328 22 214 343 333 334 312 266 360 319 34 1 9 22 20 13 6 13 23 44 56 79 149 196 207 207 210 210 210 209 211 209 215 216 218 219 222 228 230 233 233
316 230 207 259 268 291 311 318 333 318 292 323 49 21 12 14 11 13 14 13 16 26 37 53 59 75 151 197 200 206 208 209 209 215 216 220 221 222 223 223 228 230 231 231
248 255 247 260 268 280 286 309 324 344 0 12 0 36 10 15 5 5 11 17 23 21 31 47 52 57 76 138 191 203 205 205 211 214 217 221 223 223 222 223 228 233 235 236
263 273 300 283 283 301 310 353 33 35 12 17 14 12 346 16 22 14 14 21 21 21 24 35 57 59 64 74 117 168 191 208 211 213 217 217 222 222 222 224 230 233 236 236
312 317 302 267 288 308 93 355 45 37 39 16 26 346 355 12 23 18 20 16 22 22 21 30 38 54 57 63 79 100 144 177 180 189 201 209 216 219 223 230 232 228 231 236
343 347 300 283 321 18 112 37 17 0 30 27 15 7 0 351 25 30 14 17 20 22 22 27 36 47 54 60 59 73 93 132 165 177 181 188 191 210 206 211 219 221 231 243
358 334 304 288 326 271 24 348 339 335 43 23 16 5 7 4 16 13 4 12 19 27 32 31 41 47 56 64 66 64 65 68 98 95 148 171 202 206 197 209 215 218 225 230
351 341 292 303 255 45 358 328 330 131 50 9 12 6 2 5 17 356 356 4 18 35 36 45 34 49 55 54 57 64 64 59 60 69 68 103 141 170 184 197 202 200 201 206
341 345 347 348 311 104 350 341 352 42 334 336 344 351 359 11 7 356 4 18 8 21 26 45 49 48 50 56 54 55 58 67 66 62 74 61 88 115 131 144 160 180 202 218
323 328 7 351 350 356 335 351 20 332 330 338 333 338 342 349 352 357 6 10 11 358 6 24 33 43 52 50 55 57 53 55 58 58 53 50 55 70 86 105 119 137 144 151
347 336 306 313 308 329 338 337 345 346 337 337 338 336 328 335 339 340 348 4 359 3 2 3 16 24 26 47 38 47 51 52 56 62 63 57 55 59 62 70 79 93 109 120
316 345 306 333 350 346 336 354 350 347 349 353 355 351 349 339 343 336 330 343 351 350 350 9 340 299 338 5 14 12 21 34 47 55 59 56 53 55 57 61 64 71 76 89
289 317 320 302 340 339 346 353 0 1 1 358 354 353 353 355 0 356 343 335 334 340 331 343 3 354 330 300 317 357 342 6 19 39 44 46 43 44 47 49 56 61 68 65
354 314 8 346 333 332 328 352 352 354 356 351 347 346 348 351 350 352 348 348 340 333 326 306 326 344 349 349 339 313 302 342 0 353 360 13 17 27 33 35 44 55 55 56
Wind_Speed_850mb
18 9 10 8 14 29 28 36 47 25 7 8 19 41 34 15 33 22 41 51 60 69 82 83 86 96 102 95 93 91 91 89 87 85 84 83 84 79 79 80 79 75 71 69
13 8 13 31 30 31 30 35 48 46 17 22 29 45 30 18 20 39 48 55 62 63 65 76 79 90 102 102 99 95 96 93 92 89 87 86 85 84 80 78 76 74 73 72
8 19 24 34 35 28 31 34 47 42 10 20 11 44 28 18 21 39 56 73 71 79 74 80 88 96 102 108 107 98 99 97 96 93 90 87 84 82 84 86 82 79 76 75
11 13 40 35 28 22 29 28 40 35 19 27 19 36 23 12 19 19 41 55 68 76 79 86 97 104 107 115 108 98 96 102 102 98 98 99 100 102 100 93 84 84 85 82
22 34 30 22 13 33 27 32 36 34 26 21 21 10 28 17 16 22 28 57 75 86 81 90 95 107 106 115 114 106 100 105 107 105 105 102 100 101 98 92 86 90 88 83
35 29 7 6 39 35 41 30 27 27 21 23 36 25 11 14 32 13 12 48 70 81 83 90 103 106 108 111 113 109 105 104 110 109 109 107 103 100 98 98 91 93 93 85
23 18 5 28 48 44 26 17 5 11 13 26 33 27 34 15 14 18 19 34 62 75 75 84 90 98 101 103 111 115 110 109 113 116 114 113 107 102 99 99 95 97 100 94
21 21 15 40 21 20 39 14 9 19 17 17 26 28 26 32 34 14 30 40 40 63 76 90 100 109 113 111 116 120 120 116 114 122 121 116 112 109 101 96 94 94 102 95
12 13 44 24 16 19 21 4 20 11 22 13 19 20 6 27 27 19 15 22 23 28 58 90 102 110 109 112 120 125 125 126 123 120 122 120 117 115 109 104 100 95 95 92
9 25 19 25 14 9 16 33 3 9 10 18 14 14 12 34 35 18 15 17 26 32 22 70 87 96 105 116 124 122 124 129 135 128 123 123 122 116 109 104 100 100 93 91
14 8 24 26 8 24 20 21 16 12 9 8 5 10 22 30 23 24 24 31 30 28 23 22 68 89 102 102 102 118 121 122 127 132 125 120 121 117 112 111 101 93 95 88
7 9 23 47 31 8 16 11 17 9 15 10 8 8 35 35 29 30 32 38 33 29 23 8 20 59 86 95 93 104 110 117 121 126 129 125 122 118 112 104 101 96 95 92
10 6 19 20 4 5 14 28 34 27 14 6 10 7 33 37 36 44 40 46 45 44 48 39 28 17 47 71 81 92 100 106 103 103 100 115 115 108 112 110 103 95 94 93
20 7 12 15 24 25 28 42 36 22 8 18 8 27 39 45 42 41 54 52 48 53 58 70 55 36 16 35 57 72 78 85 93 99 96 100 100 103 98 100 101 95 95 93
5 11 16 25 31 31 28 28 34 22 30 16 17 31 31 31 31 41 55 61 63 62 65 67 68 63 42 26 40 54 64 72 80 79 78 85 89 93 88 87 89 84 85 85
7 9 14 15 24 12 29 20 25 29 29 28 29 20 37 33 49 57 63 65 68 69 64 61 62 57 55 42 28 40 50 58 59 61 70 73 74 82 77 79 76 75 78 72
8 13 10 8 18 26 2 21 24 24 35 27 30 35 46 22 26 48 58 66 68 69 66 69 65 60 54 51 43 29 32 46 53 59 67 65 66 73 72 72 63 55 56 59
25 30 8 10 13 9 12 31 22 21 39 37 33 44 53 49 24 50 75 62 69 70 72 73 70 71 55 49 49 41 33 30 35 37 38 41 34 38 52 53 53 55 52 54
33 18 12 6 6 12 29 36 32 23 24 33 36 42 58 79 27 44 80 67 59 66 60 55 64 59 67 53 51 51 51 42 40 31 29 39 52 49 44 53 53 55 48 43
36 22 10 10 5 5 26 39 74 16 19 39 39 37 40 57 30 24 80 56 53 58 62 53 57 60 62 61 64 54 57 57 60 40 37 24 38 38 37 35 35 35 39 38
28 21 16 16 7 11 26 53 34 20 16 46 35 34 35 16 17 50 69 62 40 42 53 55 46 54 55 58 53 63 57 57 53 55 47 39 36 31 30 26 23 23 28 29
13 12 11 10 8 9 54 26 19 11 34 43 42 39 38 36 44 48 62 62 56 46 41 51 50 48 61 58 52 55 57 51 48 51 52 52 49 47 35 26 21 20 21 19
10 7 9 6 8 25 38 30 42 41 35 40 43 51 44 45 43 52 40 50 50 45 44 36 36 38 33 50 59 49 40 40 44 51 53 51 48 52 52 45 26 25 22 21
15 14 6 17 29 41 42 48 51 48 44 43 45 45 43 43 46 47 47 44 44 41 46 50 35 28 19 28 33 35 38 34 34 40 41 41 46 53 52 43 38 39 37 28
9 14 12 8 19 35 36 43 44 49 47 47 44 44 45 48 48 46 42 39 39 33 32 42 49 39 28 19 15 24 24 28 30 30 30 32 35 37 38 40 40 39 38 36
16 8 8 6 29 13 28 40 47 51 49 50 51 52 49 48 49 48 43 43 37 36 34 28 38 46 37 19 11 8 11 10 9 20 25 22 21 21 25 29 29 27 30 31
Wind_Direction_850mb
321 13 277 279 276 283 284 272 271 255 234 321 255 266 266 220 258 239 225 210 208 203 207 203 204 210 213 213 211 207 204 202 202 200 200 199 197 195 192 191 189 191 192 190
3 269 330 328 312 285 275 273 269 278 248 261 273 274 275 206 221 222 215 211 212 210 204 201 202 204 213 214 213 209 208 204 203 203 202 202 198 197 195 193 194 195 194 193
302 271 316 318 310 310 275 260 265 266 305 269 279 276 265 258 235 226 226 219 212 208 203 200 201 206 213 212 213 210 210 208 204 204 204 203 201 200 199 196 197 197 196 195
306 319 318 313 313 345 299 265 265 269 255 251 194 271 252 239 222 219 211 211 214 213 207 204 201 208 214 215 214 213 211 210 206 203 205 204 202 200 201 200 198 197 197 198
308 306 328 341 3 335 271 297 271 262 250 261 247 248 257 177 234 225 216 206 214 219 205 204 203 211 216 215 215 214 211 211 207 204 206 205 206 206 203 201 200 200 202 204
313 293 24 336 326 297 293 280 250 251 240 247 232 224 232 190 214 220 213 214 214 218 213 208 211 215 214 213 215 214 211 211 210 205 206 205 205 207 205 204 203 203 205 208
333 332 37 357 340 326 333 341 227 210 222 231 224 225 234 234 216 193 202 216 222 219 212 211 204 207 211 207 210 214 211 211 211 209 208 206 207 208 210 209 207 207 205 209
342 327 9 337 330 286 293 231 254 212 210 223 213 217 237 227 267 295 255 257 246 232 216 208 209 208 210 208 209 213 214 213 213 212 211 210 210 211 212 212 209 210 210 213
318 265 316 317 357 341 331 298 309 285 284 204 190 233 239 16 7 345 356 7 337 295 234 214 209 209 206 207 212 213 216 215 215 215 213 213 212 214 216 216 215 215 214 215
276 301 298 342 357 354 336 324 28 202 265 232 208 165 357 353 349 344 5 1 348 333 274 218 210 209 206 209 218 214 216 217 216 216 214 214 215 217 220 218 218 220 220 223
290 244 291 309 36 12 342 359 359 292 294 255 137 91 14 345 357 9 18 14 4 351 326 235 210 213 211 208 206 213 212 214 212 215 217 215 217 218 221 221 221 225 226 225
282 279 302 295 287 216 343 339 357 332 324 301 270 100 10 342 22 22 15 9 13 16 27 351 226 207 211 210 205 211 208 212 215 217 216 215 217 217 220 223 224 228 231 235
297 314 313 328 22 214 343 333 334 312 266 360 319 34 1 9 22 20 13 6 13 23 44 56 79 149 196 207 207 210 210 210 209 211 209 215 216 218 219 222 228 230 233 233
316 230 207 259 268 291 311 318 333 318 292 323 49 21 12 14 11 13 14 13 16 26 37 53 59 75 151 197 200 206 208 209 209 215 216 220 221 222 223 223 228 230 231 231
248 255 247 260 268 280 286 309 324 344 0 12 0 36 10 15 5 5 11 17 23 21 31 47 52 57 76 138 191 203 205 205 211 214 217 221 223 223 222 223 228 233 235 236
263 273 300 283 283 301 310 353 33 35 12 17 14 12 346 16 22 14 14 21 21 21 24 35 57 59 64 74 117 168 191 208 211 213 217 217 222 222 222 224 230 233 236 236
312 317 302 267 288 308 93 355 45 37 39 16 26 346 355 12 23 18 20 16 22 22 21 30 38 54 57 63 79 100 144 177 180 189 201 209 216 219 223 230 232 228 231 236
343 347 300 283 321 18 112 37 17 0 30 27 15 7 0 351 25 30 14 17 20 22 22 27 36 47 54 60 59 73 93 132 165 177 181 188 191 210 206 211 219 221 231 243
358 334 304 288 326 271 24 348 339 335 43 23 16 5 7 4 16 13 4 12 19 27 32 31 41 47 56 64 66 64 65 68 98 95 148 171 202 206 197 209 215 218 225 230
351 341 292 303 255 45 358 328 330 131 50 9 12 6 2 5 17 356 356 4 18 35 36 45 34 49 55 54 57 64 64 59 60 69 68 103 141 170 184 197 202 200 201 206
341 345 347 348 311 104 350 341 352 42 334 336 344 351 359 11 7 356 4 18 8 21 26 45 49 48 50 56 54 55 58 67 66 62 74 61 88 115 131 144 160 180 202 218
323 328 7 351 350 356 335 351 20 332 330 338 333 338 342 349 352 357 6 10 11 358 6 24 33 43 52 50 55 57 53 55 58 58 53 50 55 70 86 105 119 137 144 151
347 336 306 313 308 329 338 337 345 346 337 337 338 336 328 335 339 340 348 4 359 3 2 3 16 24 26 47 38 47 51 52 56 62 63 57 55 59 62 70 79 93 109 120
316 345 306 333 350 346 336 354 350 347 349 353 355 351 349 339 343 336 330 343 351 350 350 9 340 299 338 5 14 12 21 34 47 55 59 56 53 55 57 61 64 71 76 89
289 317 320 302 340 339 346 353 0 1 1 358 354 353 353 355 0 356 343 335 334 340 331 343 3 354 330 300 317 357 342 6 19 39 44 46 43 44 47 49 56 61 68 65
354 314 8 346 333 332 328 352 352 354 356 351 347 346 348 351 350 352 348 348 340 333 326 306 326 344 349 349 339 313 302 342 0 353 360 13 17 27 33 35 44 55 55 56